When you browse on this site, cookies collect data to enhance your experience and personalize the content and advertising you see.
Visit our Privacy Policy to learn more. By continuing to use the site, you agree to this use of cookies and data.
  • In Lithuania
  • List of Countries
  • For 7 days
  • Water Temperature
  • Weather Map
  • Weather Widgets
  • user-avatar
    Login

    Hourly Weather Qala i Naw

    Today, 27 May, Wednesday

    Time Temperature Precipitation Wind Pressure Humidity
    00:00 +25°C° 0 mm 1 mps 683 mmHg 29%
    01:00 +25°C° 0 mm 1 mps 682 mmHg 30%
    02:00 +24°C° 0 mm 1 mps 682 mmHg 30%
    03:00 +24°C° 0 mm 1 mps 682 mmHg 30%
    04:00 +23°C° 0 mm 1 mps 682 mmHg 30%
    05:00 +24°C° 0 mm 2 mps 682 mmHg 29%
    06:00 +26°C° 0 mm 3 mps 683 mmHg 27%
    07:00 +27°C° 0 mm 4 mps 683 mmHg 26%
    08:00 +28°C° 0 mm 5 mps 683 mmHg 26%
    09:00 +29°C° 0 mm 5 mps 684 mmHg 26%
    10:00 +30°C° 0 mm 6 mps 684 mmHg 26%
    11:00 +32°C° 0 mm 7 mps 683 mmHg 25%
    12:00 +33°C° 0 mm 7 mps 683 mmHg 23%
    13:00 +34°C° 0 mm 8 mps 683 mmHg 21%
    14:00 +34°C° 0 mm 9 mps 683 mmHg 20%
    15:00 +36°C° 0 mm 10 mps 683 mmHg 18%
    16:00 +36°C° 0 mm 10 mps 683 mmHg 16%
    17:00 +34°C° 0 mm 9 mps 683 mmHg 18%
    18:00 +32°C° 0 mm 8 mps 683 mmHg 20%
    19:00 +30°C° 0 mm 7 mps 683 mmHg 22%
    20:00 +29°C° 0 mm 6 mps 683 mmHg 23%
    21:00 +28°C° 0 mm 5 mps 682 mmHg 25%
    22:00 +26°C° 0 mm 4 mps 682 mmHg 27%
    23:00 +25°C° 0 mm 3 mps 682 mmHg 32%

    Tomorrow, 28 May, Thursday

    Time Temperature Precipitation Wind Pressure Humidity
    00:00 +24°C° 0 mm 2 mps 681 mmHg 37%
    01:00 +23°C° 0 mm 2 mps 681 mmHg 42%
    02:00 +23°C° 0 mm 2 mps 681 mmHg 42%
    03:00 +23°C° 0 mm 2 mps 680 mmHg 43%
    04:00 +21°C° 0 mm 3 mps 680 mmHg 44%
    05:00 +22°C° 0 mm 3 mps 681 mmHg 41%
    06:00 +24°C° 0 mm 3 mps 681 mmHg 39%
    07:00 +25°C° 0 mm 3 mps 681 mmHg 36%
    08:00 +26°C° 0 mm 3 mps 681 mmHg 34%
    09:00 +27°C° 0 mm 3 mps 681 mmHg 31%
    10:00 +29°C° 0 mm 3 mps 681 mmHg 28%
    11:00 +30°C° 0 mm 4 mps 681 mmHg 25%
    12:00 +33°C° 0 mm 5 mps 681 mmHg 21%
    13:00 +35°C° 0 mm 7 mps 681 mmHg 17%
    14:00 +35°C° 0 mm 8 mps 681 mmHg 16%
    15:00 +35°C° 0 mm 8 mps 680 mmHg 14%
    16:00 +37°C° 0 mm 9 mps 680 mmHg 13%
    17:00 +35°C° 0 mm 9 mps 680 mmHg 14%
    18:00 +33°C° 0 mm 8 mps 680 mmHg 16%
    19:00 +32°C° 0 mm 7 mps 680 mmHg 17%
    20:00 +30°C° 0 mm 6 mps 680 mmHg 19%
    21:00 +29°C° 0 mm 5 mps 680 mmHg 20%
    22:00 +28°C° 0 mm 3 mps 680 mmHg 21%
    23:00 +27°C° 0 mm 3 mps 679 mmHg 23%

    Day after tomorrow, 29 May, Friday

    Time Temperature Precipitation Wind Pressure Humidity
    00:00 +26°C° 0 mm 2 mps 679 mmHg 25%
    01:00 +25°C° 0 mm 1 mps 679 mmHg 27%
    02:00 +24°C° 0 mm 1 mps 679 mmHg 28%
    03:00 +24°C° 0 mm 1 mps 679 mmHg 29%
    04:00 +23°C° 0 mm 1 mps 678 mmHg 30%
    05:00 +25°C° 0 mm 1 mps 679 mmHg 28%
    06:00 +26°C° 0 mm 1 mps 680 mmHg 25%
    07:00 +28°C° 0 mm 1 mps 680 mmHg 23%
    08:00 +30°C° 0 mm 3 mps 681 mmHg 20%
    09:00 +32°C° 0 mm 4 mps 681 mmHg 18%
    10:00 +34°C° 0 mm 6 mps 681 mmHg 16%
    11:00 +35°C° 0 mm 6 mps 681 mmHg 15%
    12:00 +35°C° 0 mm 6 mps 680 mmHg 14%
    13:00 +36°C° 0 mm 7 mps 680 mmHg 13%
    14:00 +36°C° 0 mm 7 mps 680 mmHg 13%
    15:00 +36°C° 0 mm 7 mps 680 mmHg 13%
    16:00 +36°C° 0 mm 7 mps 679 mmHg 12%
    17:00 +35°C° 0 mm 6 mps 679 mmHg 14%
    18:00 +34°C° 0 mm 6 mps 679 mmHg 15%
    19:00 +32°C° 0 mm 5 mps 679 mmHg 16%
    20:00 +30°C° 0 mm 4 mps 679 mmHg 17%
    21:00 +28°C° 0 mm 3 mps 679 mmHg 19%
    22:00 +27°C° 0 mm 2 mps 679 mmHg 20%
    23:00 +26°C° 0 mm 2 mps 679 mmHg 22%

    30 May, Saturday

    Time Temperature Precipitation Wind Pressure Humidity
    00:00 +25°C° 0 mm 1 mps 678 mmHg 23%
    01:00 +24°C° 0 mm 1 mps 678 mmHg 24%
    02:00 +23°C° 0 mm 1 mps 678 mmHg 24%
    03:00 +23°C° 0 mm 1 mps 678 mmHg 24%
    04:00 +22°C° 0 mm 1 mps 678 mmHg 24%
    05:00 +24°C° 0 mm 1 mps 678 mmHg 21%
    06:00 +26°C° 0 mm 1 mps 679 mmHg 19%
    07:00 +28°C° 0 mm 1 mps 680 mmHg 16%
    08:00 +29°C° 0 mm 2 mps 680 mmHg 14%
    09:00 +31°C° 0 mm 2 mps 680 mmHg 12%
    10:00 +33°C° 0 mm 3 mps 681 mmHg 10%
    11:00 +34°C° 0 mm 4 mps 680 mmHg 9%
    12:00 +35°C° 0 mm 4 mps 680 mmHg 8%
    13:00 +36°C° 0 mm 4 mps 680 mmHg 8%
    14:00 +36°C° 0 mm 5 mps 680 mmHg 7%
    15:00 +36°C° 0 mm 5 mps 680 mmHg 7%
    16:00 +36°C° 0 mm 5 mps 680 mmHg 7%
    17:00 +34°C° 0 mm 5 mps 680 mmHg 8%
    18:00 +33°C° 0 mm 4 mps 679 mmHg 9%
    19:00 +30°C° 0 mm 3 mps 679 mmHg 10%
    20:00 +29°C° 0 mm 3 mps 679 mmHg 11%
    21:00 +27°C° 0 mm 2 mps 679 mmHg 13%
    22:00 +26°C° 0 mm 1 mps 680 mmHg 14%
    23:00 +25°C° 0 mm 1 mps 679 mmHg 15%

    31 May, Sunday

    Time Temperature Precipitation Wind Pressure Humidity
    00:00 +24°C° 0 mm 1 mps 679 mmHg 16%
    01:00 +23°C° 0 mm 1 mps 679 mmHg 16%
    02:00 +23°C° 0 mm 1 mps 679 mmHg 17%
    03:00 +22°C° 0 mm 1 mps 679 mmHg 17%
    04:00 +21°C° 0 mm 1 mps 679 mmHg 17%
    05:00 +24°C° 0 mm 1 mps 680 mmHg 15%
    06:00 +26°C° 0 mm 1 mps 680 mmHg 12%
    07:00 +29°C° 0 mm 1 mps 681 mmHg 10%
    08:00 +30°C° 0 mm 2 mps 681 mmHg 9%
    09:00 +31°C° 0 mm 3 mps 682 mmHg 8%
    10:00 +34°C° 0 mm 5 mps 682 mmHg 7%
    11:00 +34°C° 0 mm 5 mps 682 mmHg 7%
    12:00 +35°C° 0 mm 5 mps 682 mmHg 6%
    13:00 +36°C° 0 mm 5 mps 682 mmHg 6%
    14:00 +36°C° 0 mm 6 mps 682 mmHg 6%
    15:00 +36°C° 0 mm 6 mps 682 mmHg 6%
    16:00 +36°C° 0 mm 7 mps 682 mmHg 6%
    17:00 +35°C° 0 mm 6 mps 681 mmHg 7%
    18:00 +33°C° 0 mm 5 mps 681 mmHg 8%
    19:00 +30°C° 0 mm 5 mps 681 mmHg 9%
    20:00 +29°C° 0 mm 3 mps 681 mmHg 11%
    21:00 +27°C° 0 mm 2 mps 681 mmHg 13%
    22:00 +25°C° 0 mm 1 mps 681 mmHg 14%
    23:00 +25°C° 0 mm 1 mps 681 mmHg 15%

    1 June, Monday

    Time Temperature Precipitation Wind Pressure Humidity
    00:00 +24°C° 0 mm 1 mps 681 mmHg 16%
    01:00 +23°C° 0 mm 1 mps 680 mmHg 17%
    02:00 +20°C° 0 mm 0 mps 680 mmHg 17%
    03:00 +20°C° 0 mm 0 mps 680 mmHg 18%
    04:00 +19°C° 0 mm 0 mps 680 mmHg 19%
    05:00 +21°C° 0 mm 0 mps 680 mmHg 16%
    06:00 +26°C° 0 mm 1 mps 681 mmHg 14%
    07:00 +28°C° 0 mm 1 mps 682 mmHg 11%
    08:00 +30°C° 0 mm 2 mps 682 mmHg 10%
    09:00 +32°C° 0 mm 2 mps 682 mmHg 9%
    10:00 +34°C° 0 mm 3 mps 682 mmHg 8%
    11:00 +35°C° 0 mm 4 mps 682 mmHg 8%
    12:00 +36°C° 0 mm 4 mps 682 mmHg 7%
    13:00 +37°C° 0 mm 5 mps 682 mmHg 7%
    14:00 +38°C° 0 mm 6 mps 682 mmHg 7%
    15:00 +38°C° 0 mm 6 mps 682 mmHg 7%
    16:00 +38°C° 0 mm 6 mps 682 mmHg 7%
    17:00 +36°C° 0 mm 5 mps 681 mmHg 8%
    18:00 +34°C° 0 mm 4 mps 681 mmHg 9%
    19:00 +31°C° 0 mm 3 mps 681 mmHg 11%
    20:00 +30°C° 0 mm 2 mps 681 mmHg 12%
    21:00 +28°C° 0 mm 2 mps 681 mmHg 14%
    22:00 +27°C° 0 mm 1 mps 681 mmHg 16%
    23:00 +26°C° 0 mm 1 mps 681 mmHg 16%
    Show more